Time,TemperatureF,DewpointF,PressureIn,WindDirection,WindDirectionDegrees,WindSpeedMPH,WindSpeedGustMPH,Humidity,HourlyPrecipIn,Conditions,Clouds,dailyrainin,SoftwareType,DateUTC
2013-08-28 00:00:00,71.7,70.2,29.95,SW,233,0.0,0.0,95,0.00,,---,0.00,VWS V14.01,2013-08-28 04:00:00,
2013-08-28 00:01:00,71.6,70.1,29.95,SW,233,0.0,0.0,95,0.00,,---,0.00,VWS V14.01,2013-08-28 04:01:00,
2013-08-28 00:02:00,71.7,70.2,29.95,SW,233,0.0,0.0,95,0.00,,---,0.00,VWS V14.01,2013-08-28 04:02:00,
2013-08-28 00:07:00,71.8,70.3,29.95,SW,233,0.0,0.0,95,0.00,,---,0.00,VWS V14.01,2013-08-28 04:07:00,
2013-08-28 00:12:00,72.0,70.5,29.95,SW,233,0.0,0.0,95,0.00,,---,0.00,VWS V14.01,2013-08-28 04:12:00,
2013-08-28 00:17:00,72.4,70.9,29.95,NW,315,0.0,0.0,95,0.00,,---,0.00,VWS V14.01,2013-08-28 04:17:00,
2013-08-28 00:22:00,72.8,71.3,29.94,North,11,0.0,1.0,95,0.00,,---,0.00,VWS V14.01,2013-08-28 04:22:00,
2013-08-28 00:27:00,73.2,71.7,29.94,North,11,0.0,0.0,95,0.00,,---,0.00,VWS V14.01,2013-08-28 04:27:00,
2013-08-28 00:30:00,73.1,71.6,29.94,North,11,0.0,1.0,95,0.00,,---,0.00,VWS V14.01,2013-08-28 04:30:00,
2013-08-28 00:32:00,73.4,71.6,29.94,North,11,0.0,0.0,94,0.00,,---,0.00,VWS V14.01,2013-08-28 04:32:00,
2013-08-28 00:37:00,73.6,71.8,29.94,North,11,0.0,0.0,94,0.00,,---,0.00,VWS V14.01,2013-08-28 04:37:00,
2013-08-28 00:42:00,73.7,71.9,29.94,North,11,0.0,1.0,94,0.00,,---,0.00,VWS V14.01,2013-08-28 04:42:00,
2013-08-28 00:47:00,73.8,72.0,29.93,North,11,1.0,1.0,94,0.00,,---,0.00,VWS V14.01,2013-08-28 04:47:00,
2013-08-28 00:52:00,73.9,72.1,29.93,NNW,338,0.0,1.0,94,0.00,,---,0.00,VWS V14.01,2013-08-28 04:52:00,
2013-08-28 00:54:00,74.0,72.2,29.93,North,351,0.0,1.0,94,0.00,,---,0.00,VWS V14.01,2013-08-28 04:54:00,
2013-08-28 01:00:00,74.1,71.9,29.93,West,263,1.0,1.0,93,0.00,,---,0.00,VWS V14.01,2013-08-28 05:00:00,
2013-08-28 01:05:00,74.1,71.9,29.93,West,263,0.0,1.0,93,0.00,,---,0.00,VWS V14.01,2013-08-28 05:05:00,
2013-08-28 01:10:00,73.9,71.8,29.93,West,263,0.0,1.0,93,0.00,,---,0.00,VWS V14.01,2013-08-28 05:10:00,
2013-08-28 01:15:00,73.7,71.6,29.93,West,263,0.0,1.0,93,0.00,,---,0.00,VWS V14.01,2013-08-28 05:15:00,
2013-08-28 01:20:00,73.5,71.4,29.93,West,263,0.0,1.0,93,0.00,,---,0.00,VWS V14.01,2013-08-28 05:20:00,
2013-08-28 01:25:00,73.3,71.5,29.93,West,263,0.0,1.0,94,0.00,,---,0.00,VWS V14.01,2013-08-28 05:25:00,
2013-08-28 01:30:00,73.2,71.4,29.93,West,263,0.0,0.0,94,0.00,,---,0.00,VWS V14.01,2013-08-28 05:30:00,
2013-08-28 01:35:00,73.0,71.2,29.93,West,263,0.0,0.0,94,0.00,,---,0.00,VWS V14.01,2013-08-28 05:35:00,
2013-08-28 01:40:00,72.9,71.1,29.94,West,263,0.0,0.0,94,0.00,,---,0.00,VWS V14.01,2013-08-28 05:40:00,
2013-08-28 01:45:00,72.7,70.9,29.93,West,262,0.0,0.0,94,0.00,,---,0.00,VWS V14.01,2013-08-28 05:45:00,
2013-08-28 01:50:00,72.5,70.7,29.93,West,263,0.0,0.0,94,0.00,,---,0.00,VWS V14.01,2013-08-28 05:50:00,
2013-08-28 01:55:00,72.4,70.6,29.93,West,264,0.0,1.0,94,0.00,,---,0.00,VWS V14.01,2013-08-28 05:55:00,
2013-08-28 02:00:00,72.4,70.9,29.93,West,264,0.0,1.0,95,0.00,,---,0.00,VWS V14.01,2013-08-28 06:00:00,
2013-08-28 02:05:00,72.4,70.9,29.93,North,5,0.0,1.0,95,0.00,,---,0.00,VWS V14.01,2013-08-28 06:05:00,
2013-08-28 02:10:00,72.4,70.9,29.93,North,5,0.0,1.0,95,0.00,,---,0.00,VWS V14.01,2013-08-28 06:10:00,
2013-08-28 02:15:00,72.4,70.9,29.92,North,11,1.0,1.0,95,0.00,,---,0.00,VWS V14.01,2013-08-28 06:15:00,
2013-08-28 02:20:00,72.3,70.8,29.92,North,11,0.0,1.0,95,0.00,,---,0.00,VWS V14.01,2013-08-28 06:20:00,
2013-08-28 02:25:00,72.2,70.7,29.93,North,11,0.0,1.0,95,0.00,,---,0.00,VWS V14.01,2013-08-28 06:25:00,
2013-08-28 02:30:00,72.2,70.7,29.92,North,11,0.0,0.0,95,0.00,,---,0.00,VWS V14.01,2013-08-28 06:30:00,
2013-08-28 02:35:00,72.3,70.8,29.92,NW,326,0.0,1.0,95,0.00,,---,0.00,VWS V14.01,2013-08-28 06:35:00,
2013-08-28 02:40:00,72.4,70.9,29.92,NW,326,0.0,1.0,95,0.00,,---,0.00,VWS V14.01,2013-08-28 06:40:00,
2013-08-28 02:45:00,72.4,70.9,29.92,NW,326,0.0,1.0,95,0.00,,---,0.00,VWS V14.01,2013-08-28 06:45:00,
2013-08-28 02:50:00,72.3,70.5,29.92,NNW,329,0.0,1.0,94,0.00,,---,0.00,VWS V14.01,2013-08-28 06:50:00,
2013-08-28 02:55:00,72.3,70.5,29.92,WNW,288,0.0,0.0,94,0.00,,---,0.00,VWS V14.01,2013-08-28 06:55:00,
2013-08-28 03:00:00,72.3,70.5,29.92,NW,307,0.0,0.0,94,0.00,,---,0.00,VWS V14.01,2013-08-28 07:00:00,
2013-08-28 03:05:00,72.2,70.4,29.92,NW,318,0.0,0.0,94,0.00,,---,0.00,VWS V14.01,2013-08-28 07:05:00,
2013-08-28 03:10:00,72.1,70.3,29.92,NW,317,0.0,0.0,94,0.00,,---,0.00,VWS V14.01,2013-08-28 07:10:00,
2013-08-28 03:15:00,71.8,70.0,29.92,NW,317,0.0,0.0,94,0.00,,---,0.00,VWS V14.01,2013-08-28 07:15:00,
2013-08-28 03:20:00,71.6,69.8,29.91,NW,317,0.0,0.0,94,0.00,,---,0.00,VWS V14.01,2013-08-28 07:20:00,
2013-08-28 03:25:00,71.4,69.6,29.91,NW,318,0.0,0.0,94,0.00,,---,0.00,VWS V14.01,2013-08-28 07:25:00,
2013-08-28 03:30:00,71.2,69.7,29.91,NW,318,0.0,0.0,95,0.00,,---,0.00,VWS V14.01,2013-08-28 07:30:00,
2013-08-28 03:35:00,71.0,69.5,29.91,NW,318,0.0,0.0,95,0.00,,---,0.00,VWS V14.01,2013-08-28 07:35:00,
2013-08-28 03:40:00,70.9,69.4,29.91,NW,317,0.0,0.0,95,0.00,,---,0.00,VWS V14.01,2013-08-28 07:40:00,
2013-08-28 03:45:00,70.8,69.3,29.91,NW,317,0.0,0.0,95,0.00,,---,0.00,VWS V14.01,2013-08-28 07:45:00,
2013-08-28 03:51:00,70.7,69.2,29.91,NW,317,0.0,0.0,95,0.00,,---,0.00,VWS V14.01,2013-08-28 07:51:00,
2013-08-28 03:56:00,70.6,69.1,29.91,NW,317,0.0,0.0,95,0.00,,---,0.00,VWS V14.01,2013-08-28 07:56:00,
2013-08-28 04:00:00,70.7,69.2,29.91,NW,317,0.0,0.0,95,0.00,,---,0.00,VWS V14.01,2013-08-28 08:00:00,
2013-08-28 04:01:00,70.5,69.0,29.90,NW,317,0.0,0.0,95,0.00,,---,0.00,VWS V14.01,2013-08-28 08:01:00,
2013-08-28 04:06:00,70.4,68.9,29.90,NW,317,0.0,0.0,95,0.00,,---,0.00,VWS V14.01,2013-08-28 08:06:00,
2013-08-28 04:11:00,70.3,68.8,29.90,NW,317,0.0,0.0,95,0.00,,---,0.00,VWS V14.01,2013-08-28 08:11:00,
2013-08-28 04:16:00,70.3,68.8,29.90,NW,317,0.0,0.0,95,0.00,,---,0.00,VWS V14.01,2013-08-28 08:16:00,
2013-08-28 04:21:00,70.1,68.6,29.90,NW,318,0.0,0.0,95,0.00,,---,0.00,VWS V14.01,2013-08-28 08:21:00,
2013-08-28 04:26:00,70.1,68.9,29.90,NW,317,0.0,0.0,96,0.00,,---,0.00,VWS V14.01,2013-08-28 08:26:00,
2013-08-28 04:30:00,70.1,68.6,29.90,NW,317,0.0,0.0,95,0.00,,---,0.00,VWS V14.01,2013-08-28 08:30:00,
2013-08-28 04:31:00,70.1,68.9,29.90,NW,317,0.0,0.0,96,0.00,,---,0.00,VWS V14.01,2013-08-28 08:31:00,
2013-08-28 04:36:00,70.0,68.8,29.90,NW,317,0.0,0.0,96,0.00,,---,0.00,VWS V14.01,2013-08-28 08:36:00,
2013-08-28 04:41:00,69.9,68.7,29.90,NW,317,0.0,0.0,96,0.00,,---,0.00,VWS V14.01,2013-08-28 08:41:00,
2013-08-28 04:46:00,69.9,68.7,29.90,NW,318,0.0,0.0,96,0.00,,---,0.00,VWS V14.01,2013-08-28 08:46:00,
2013-08-28 04:51:00,69.7,68.5,29.90,NW,317,0.0,0.0,96,0.00,,---,0.00,VWS V14.01,2013-08-28 08:51:00,
2013-08-28 04:56:00,69.6,68.4,29.90,NW,317,0.0,0.0,96,0.00,,---,0.00,VWS V14.01,2013-08-28 08:56:00,
2013-08-28 05:00:00,69.6,68.4,29.90,NW,317,0.0,0.0,96,0.00,,---,0.00,VWS V14.01,2013-08-28 09:00:00,
2013-08-28 05:01:00,69.5,68.3,29.91,NW,317,0.0,0.0,96,0.00,,---,0.00,VWS V14.01,2013-08-28 09:01:00,
2013-08-28 05:06:00,69.5,68.3,29.91,NW,317,0.0,0.0,96,0.00,,---,0.00,VWS V14.01,2013-08-28 09:06:00,
2013-08-28 05:11:00,69.4,68.2,29.91,NW,317,0.0,0.0,96,0.00,,---,0.00,VWS V14.01,2013-08-28 09:11:00,
2013-08-28 05:16:00,69.2,68.0,29.91,NW,317,0.0,0.0,96,0.00,,---,0.00,VWS V14.01,2013-08-28 09:16:00,
2013-08-28 05:21:00,69.2,68.0,29.91,NW,318,0.0,0.0,96,0.00,,---,0.00,VWS V14.01,2013-08-28 09:21:00,
2013-08-28 05:26:00,69.0,67.8,29.91,NW,318,0.0,0.0,96,0.00,,---,0.00,VWS V14.01,2013-08-28 09:26:00,
2013-08-28 05:30:00,69.1,67.9,29.91,NW,318,0.0,0.0,96,0.00,,---,0.00,VWS V14.01,2013-08-28 09:30:00,
2013-08-28 05:31:00,68.9,67.7,29.91,NW,318,0.0,0.0,96,0.00,,---,0.00,VWS V14.01,2013-08-28 09:31:00,
2013-08-28 05:34:00,68.8,67.6,29.91,NW,317,0.0,0.0,96,0.00,,---,0.00,VWS V14.01,2013-08-28 09:34:00,
2013-08-28 05:39:00,68.9,67.7,29.91,NW,317,0.0,0.0,96,0.00,,---,0.00,VWS V14.01,2013-08-28 09:39:00,
2013-08-28 05:44:00,68.9,67.7,29.91,NW,318,0.0,0.0,96,0.00,,---,0.00,VWS V14.01,2013-08-28 09:44:00,
2013-08-28 05:49:00,68.8,67.6,29.91,NW,318,0.0,0.0,96,0.00,,---,0.00,VWS V14.01,2013-08-28 09:49:00,
2013-08-28 05:54:00,68.8,67.6,29.91,NW,317,0.0,0.0,96,0.00,,---,0.00,VWS V14.01,2013-08-28 09:54:00,
2013-08-28 05:59:00,68.6,67.4,29.91,NW,317,0.0,0.0,96,0.00,,---,0.00,VWS V14.01,2013-08-28 09:59:00,
2013-08-28 06:00:00,68.8,67.6,29.91,NW,318,0.0,0.0,96,0.00,,---,0.00,VWS V14.01,2013-08-28 10:00:00,
2013-08-28 06:04:00,68.5,67.3,29.92,NW,317,0.0,0.0,96,0.00,,---,0.00,VWS V14.01,2013-08-28 10:04:00,
2013-08-28 06:09:00,68.4,67.2,29.92,NW,318,0.0,0.0,96,0.00,,---,0.00,VWS V14.01,2013-08-28 10:09:00,
2013-08-28 06:14:00,68.4,67.2,29.92,NW,317,0.0,0.0,96,0.00,,---,0.00,VWS V14.01,2013-08-28 10:14:00,
2013-08-28 06:19:00,68.3,67.1,29.92,NW,318,0.0,0.0,96,0.00,,---,0.00,VWS V14.01,2013-08-28 10:19:00,
2013-08-28 06:24:00,68.2,67.0,29.92,NW,317,0.0,0.0,96,0.00,,---,0.00,VWS V14.01,2013-08-28 10:24:00,
2013-08-28 06:29:00,68.2,67.0,29.92,NW,317,0.0,0.0,96,0.00,,---,0.00,VWS V14.01,2013-08-28 10:29:00,
2013-08-28 06:30:00,68.2,67.0,29.92,NW,318,0.0,0.0,96,0.00,,---,0.00,VWS V14.01,2013-08-28 10:30:00,
2013-08-28 06:34:00,68.1,66.9,29.92,NW,317,0.0,0.0,96,0.00,,---,0.00,VWS V14.01,2013-08-28 10:34:00,
2013-08-28 06:39:00,68.1,66.9,29.92,NW,318,0.0,0.0,96,0.00,,---,0.00,VWS V14.01,2013-08-28 10:39:00,
2013-08-28 06:44:00,68.1,66.9,29.92,NW,318,0.0,0.0,96,0.00,,---,0.00,VWS V14.01,2013-08-28 10:44:00,
2013-08-28 06:49:00,68.1,66.9,29.92,NW,317,0.0,0.0,96,0.00,,---,0.00,VWS V14.01,2013-08-28 10:49:00,
2013-08-28 06:54:00,68.1,66.9,29.92,NW,317,0.0,0.0,96,0.00,,---,0.00,VWS V14.01,2013-08-28 10:54:00,
2013-08-28 06:59:00,68.1,66.9,29.92,NW,317,0.0,0.0,96,0.00,,---,0.00,VWS V14.01,2013-08-28 10:59:00,
2013-08-28 07:00:00,68.1,66.9,29.92,NW,317,0.0,0.0,96,0.00,,---,0.00,VWS V14.01,2013-08-28 11:00:00,
2013-08-28 07:04:00,68.2,67.0,29.92,NW,318,0.0,0.0,96,0.00,,---,0.00,VWS V14.01,2013-08-28 11:04:00,
2013-08-28 07:09:00,68.2,67.0,29.92,NW,318,0.0,0.0,96,0.00,,---,0.00,VWS V14.01,2013-08-28 11:09:00,
2013-08-28 07:14:00,68.3,67.1,29.93,NW,317,0.0,0.0,96,0.00,,---,0.00,VWS V14.01,2013-08-28 11:14:00,
2013-08-28 07:19:00,68.4,67.2,29.93,NW,317,0.0,0.0,96,0.00,,---,0.00,VWS V14.01,2013-08-28 11:19:00,
2013-08-28 07:24:00,68.5,67.3,29.93,NW,317,0.0,0.0,96,0.00,,---,0.00,VWS V14.01,2013-08-28 11:24:00,
2013-08-28 07:29:00,68.8,67.3,29.93,NW,317,0.0,0.0,95,0.00,,---,0.00,VWS V14.01,2013-08-28 11:29:00,
2013-08-28 07:30:00,68.6,67.4,29.93,NW,317,0.0,0.0,96,0.00,,---,0.00,VWS V14.01,2013-08-28 11:30:00,
2013-08-28 07:34:00,69.1,67.6,29.93,NW,317,0.0,0.0,95,0.00,,---,0.00,VWS V14.01,2013-08-28 11:34:00,
2013-08-28 07:39:00,69.3,67.8,29.93,NW,317,0.0,0.0,95,0.00,,---,0.00,VWS V14.01,2013-08-28 11:39:00,
2013-08-28 07:44:00,69.5,68.0,29.93,NW,317,0.0,0.0,95,0.00,,---,0.00,VWS V14.01,2013-08-28 11:44:00,
2013-08-28 07:49:00,69.6,68.1,29.94,NW,318,0.0,0.0,95,0.00,,---,0.00,VWS V14.01,2013-08-28 11:49:00,
2013-08-28 07:55:00,69.8,68.3,29.94,WSW,249,0.0,0.0,95,0.00,,---,0.00,VWS V14.01,2013-08-28 11:55:00,
2013-08-28 08:00:00,70.0,68.5,29.94,WSW,248,0.0,0.0,95,0.00,,---,0.00,VWS V14.01,2013-08-28 12:00:00,
2013-08-28 08:05:00,70.2,68.7,29.94,WSW,248,0.0,0.0,95,0.00,,---,0.00,VWS V14.01,2013-08-28 12:05:00,
2013-08-28 08:10:00,70.3,68.8,29.94,WSW,248,0.0,0.0,95,0.00,,---,0.00,VWS V14.01,2013-08-28 12:10:00,
2013-08-28 08:15:00,70.5,69.0,29.93,WSW,248,0.0,0.0,95,0.00,,---,0.00,VWS V14.01,2013-08-28 12:15:00,
2013-08-28 08:20:00,70.8,69.3,29.93,WSW,248,0.0,0.0,95,0.00,,---,0.00,VWS V14.01,2013-08-28 12:20:00,
2013-08-28 08:25:00,71.0,69.5,29.93,WSW,248,0.0,0.0,95,0.00,,---,0.00,VWS V14.01,2013-08-28 12:25:00,
2013-08-28 08:30:00,71.2,69.7,29.93,WSW,248,0.0,0.0,95,0.00,,---,0.00,VWS V14.01,2013-08-28 12:30:00,
2013-08-28 08:35:00,71.4,69.9,29.93,WSW,248,0.0,0.0,95,0.00,,---,0.00,VWS V14.01,2013-08-28 12:35:00,
2013-08-28 08:40:00,71.6,70.1,29.93,WSW,248,0.0,0.0,95,0.00,,---,0.00,VWS V14.01,2013-08-28 12:40:00,
2013-08-28 08:45:00,71.8,70.3,29.93,WSW,248,0.0,0.0,95,0.00,,---,0.00,VWS V14.01,2013-08-28 12:45:00,
2013-08-28 08:50:00,72.0,70.5,29.93,WSW,248,0.0,0.0,95,0.00,,---,0.00,VWS V14.01,2013-08-28 12:50:00,
2013-08-28 08:55:00,72.4,70.9,29.93,WSW,248,0.0,0.0,95,0.00,,---,0.00,VWS V14.01,2013-08-28 12:55:00,
2013-08-28 09:00:00,72.6,71.1,29.93,WSW,248,0.0,0.0,95,0.00,,---,0.00,VWS V14.01,2013-08-28 13:00:00,
2013-08-28 09:05:00,73.0,71.5,29.93,WSW,248,0.0,0.0,95,0.00,,---,0.00,VWS V14.01,2013-08-28 13:05:00,
2013-08-28 09:10:00,73.3,71.8,29.93,WSW,248,0.0,0.0,95,0.00,,---,0.00,VWS V14.01,2013-08-28 13:10:00,
2013-08-28 09:15:00,73.5,72.0,29.93,WSW,248,0.0,0.0,95,0.00,,---,0.00,VWS V14.01,2013-08-28 13:15:00,
2013-08-28 09:20:00,73.7,72.2,29.93,WSW,248,0.0,0.0,95,0.00,,---,0.00,VWS V14.01,2013-08-28 13:20:00,
2013-08-28 09:25:00,74.0,72.5,29.93,WSW,248,0.0,0.0,95,0.00,,---,0.00,VWS V14.01,2013-08-28 13:25:00,
2013-08-28 09:30:00,74.2,72.7,29.94,WSW,248,0.0,0.0,95,0.00,,---,0.00,VWS V14.01,2013-08-28 13:30:00,
2013-08-28 09:35:00,74.6,73.1,29.94,NW,319,0.0,0.0,95,0.00,,---,0.00,VWS V14.01,2013-08-28 13:35:00,
2013-08-28 09:40:00,75.1,73.6,29.94,NW,318,0.0,0.0,95,0.00,,---,0.00,VWS V14.01,2013-08-28 13:40:00,
2013-08-28 09:45:00,75.4,73.6,29.94,NW,317,0.0,0.0,94,0.00,,---,0.00,VWS V14.01,2013-08-28 13:45:00,
2013-08-28 09:50:00,75.7,73.8,29.94,NW,319,0.0,0.0,94,0.00,,---,0.00,VWS V14.01,2013-08-28 13:50:00,
2013-08-28 09:55:00,75.9,73.7,29.94,NW,318,0.0,0.0,93,0.00,,---,0.00,VWS V14.01,2013-08-28 13:55:00,
2013-08-28 10:00:00,76.1,73.9,29.94,NW,318,0.0,0.0,93,0.00,,---,0.00,VWS V14.01,2013-08-28 14:00:00,
2013-08-28 10:05:00,76.4,74.2,29.94,NW,318,0.0,0.0,93,0.00,,---,0.00,VWS V14.01,2013-08-28 14:05:00,
2013-08-28 10:10:00,76.7,74.5,29.94,NW,317,0.0,0.0,93,0.00,,---,0.00,VWS V14.01,2013-08-28 14:10:00,
2013-08-28 10:15:00,77.0,74.8,29.94,NW,317,0.0,0.0,93,0.00,,---,0.00,VWS V14.01,2013-08-28 14:15:00,
2013-08-28 10:20:00,77.0,74.5,29.95,NW,314,0.0,0.0,92,0.00,,---,0.00,VWS V14.01,2013-08-28 14:20:00,
2013-08-28 10:25:00,77.2,74.4,29.95,NNE,17,0.0,1.0,91,0.00,,---,0.00,VWS V14.01,2013-08-28 14:25:00,
2013-08-28 10:30:00,77.5,74.7,29.95,NNE,17,0.0,1.0,91,0.00,,---,0.00,VWS V14.01,2013-08-28 14:30:00,
2013-08-28 10:35:00,77.9,75.1,29.95,WNW,286,0.0,1.0,91,0.00,,---,0.00,VWS V14.01,2013-08-28 14:35:00,
2013-08-28 10:40:00,78.2,74.7,29.95,NE,40,0.0,1.0,89,0.00,,---,0.00,VWS V14.01,2013-08-28 14:40:00,
2013-08-28 10:45:00,78.6,74.8,29.95,NE,40,1.0,1.0,88,0.00,,---,0.00,VWS V14.01,2013-08-28 14:45:00,
2013-08-28 10:50:00,78.8,74.6,29.95,NE,39,0.0,1.0,87,0.00,,---,0.00,VWS V14.01,2013-08-28 14:50:00,
2013-08-28 10:55:00,79.1,74.6,29.95,NW,323,0.0,0.0,86,0.00,,---,0.00,VWS V14.01,2013-08-28 14:55:00,
2013-08-28 11:01:00,79.5,74.9,29.95,NNW,348,0.0,1.0,86,0.00,,---,0.00,VWS V14.01,2013-08-28 15:01:00,
2013-08-28 11:06:00,79.9,75.3,29.95,NE,43,0.0,2.0,86,0.00,,---,0.00,VWS V14.01,2013-08-28 15:06:00,
2013-08-28 11:11:00,80.2,74.9,29.95,WNW,288,0.0,2.0,84,0.00,,---,0.00,VWS V14.01,2013-08-28 15:11:00,
2013-08-28 11:16:00,80.5,75.2,29.96,North,11,0.0,2.0,84,0.00,,---,0.00,VWS V14.01,2013-08-28 15:16:00,
2013-08-28 11:21:00,80.6,74.6,29.96,WNW,290,0.0,3.0,82,0.00,,---,0.00,VWS V14.01,2013-08-28 15:21:00,
2013-08-28 11:26:00,80.8,74.8,29.96,NW,315,0.0,0.0,82,0.00,,---,0.00,VWS V14.01,2013-08-28 15:26:00,
2013-08-28 11:31:00,81.1,75.1,29.96,North,351,0.0,0.0,82,0.00,,---,0.00,VWS V14.01,2013-08-28 15:31:00,
2013-08-28 11:36:00,81.3,75.3,29.96,North,5,0.0,0.0,82,0.00,,---,0.00,VWS V14.01,2013-08-28 15:36:00,
2013-08-28 11:41:00,81.5,75.8,29.96,WNW,286,0.0,1.0,83,0.00,,---,0.00,VWS V14.01,2013-08-28 15:41:00,
2013-08-28 11:46:00,81.7,76.4,29.95,WNW,286,0.0,1.0,84,0.00,,---,0.00,VWS V14.01,2013-08-28 15:46:00,
2013-08-28 11:51:00,81.9,76.6,29.95,WNW,286,0.0,1.0,84,0.00,,---,0.00,VWS V14.01,2013-08-28 15:51:00,
2013-08-28 11:56:00,81.7,75.3,29.95,WNW,291,0.0,0.0,81,0.00,,---,0.00,VWS V14.01,2013-08-28 15:56:00,
2013-08-28 12:01:00,81.8,76.1,29.95,WNW,291,0.0,0.0,83,0.00,,---,0.00,VWS V14.01,2013-08-28 16:01:00,
2013-08-28 12:06:00,81.7,75.3,29.95,North,355,1.0,1.0,81,0.00,,---,0.00,VWS V14.01,2013-08-28 16:06:00,
2013-08-28 12:11:00,81.5,75.1,29.94,North,360,0.0,1.0,81,0.00,,---,0.00,VWS V14.01,2013-08-28 16:11:00,
2013-08-28 12:16:00,81.6,75.9,29.94,North,355,0.0,1.0,83,0.00,,---,0.00,VWS V14.01,2013-08-28 16:16:00,
2013-08-28 12:21:00,81.7,76.4,29.94,North,360,0.0,1.0,84,0.00,,---,0.00,VWS V14.01,2013-08-28 16:21:00,
2013-08-28 12:26:00,81.5,76.2,29.94,North,360,0.0,0.0,84,0.00,,---,0.00,VWS V14.01,2013-08-28 16:26:00,
2013-08-28 12:31:00,81.4,76.5,29.94,North,355,0.0,0.0,85,0.00,,---,0.00,VWS V14.01,2013-08-28 16:31:00,
2013-08-28 12:36:00,81.1,76.2,29.94,NE,50,0.0,1.0,85,0.00,,---,0.00,VWS V14.01,2013-08-28 16:36:00,
2013-08-28 12:41:00,81.0,76.1,29.94,NE,50,0.0,1.0,85,0.00,,---,0.00,VWS V14.01,2013-08-28 16:41:00,
2013-08-28 12:46:00,80.8,76.2,29.95,NE,49,0.0,1.0,86,0.00,,---,0.00,VWS V14.01,2013-08-28 16:46:00,
2013-08-28 12:51:00,80.6,76.0,29.95,ENE,77,0.0,1.0,86,0.00,,---,0.00,VWS V14.01,2013-08-28 16:51:00,
2013-08-28 12:56:00,80.3,76.1,29.95,ENE,76,0.0,0.0,87,0.00,,---,0.00,VWS V14.01,2013-08-28 16:56:00,
2013-08-28 13:01:00,80.1,75.9,29.95,ENE,76,0.0,0.0,87,0.00,,---,0.00,VWS V14.01,2013-08-28 17:01:00,
2013-08-28 13:06:00,79.7,75.2,29.95,ENE,59,0.0,1.0,86,0.00,,---,0.00,VWS V14.01,2013-08-28 17:06:00,
2013-08-28 13:11:00,79.6,75.7,29.95,ENE,59,0.0,1.0,88,0.00,,---,0.00,VWS V14.01,2013-08-28 17:11:00,
2013-08-28 13:16:00,79.6,76.1,29.94,NE,55,0.0,1.0,89,0.00,,---,0.00,VWS V14.01,2013-08-28 17:16:00,
2013-08-28 13:21:00,79.4,75.9,29.94,NE,55,0.0,1.0,89,0.00,,---,0.00,VWS V14.01,2013-08-28 17:21:00,
2013-08-28 13:26:00,79.4,75.9,29.94,NE,55,0.0,0.0,89,0.00,,---,0.00,VWS V14.01,2013-08-28 17:26:00,
2013-08-28 13:31:00,79.4,76.2,29.94,NE,55,0.0,0.0,90,0.00,,---,0.00,VWS V14.01,2013-08-28 17:31:00,
2013-08-28 13:36:00,79.5,76.3,29.94,NE,55,0.0,1.0,90,0.00,,---,0.00,VWS V14.01,2013-08-28 17:36:00,
2013-08-28 13:41:00,79.4,75.5,29.93,NE,34,0.0,1.0,88,0.00,,---,0.00,VWS V14.01,2013-08-28 17:41:00,
2013-08-28 13:47:00,79.4,75.5,29.93,NNE,33,0.0,1.0,88,0.00,,---,0.00,VWS V14.01,2013-08-28 17:47:00,
2013-08-28 13:52:00,79.6,76.1,29.93,NW,319,0.0,1.0,89,0.00,,---,0.00,VWS V14.01,2013-08-28 17:52:00,
2013-08-28 13:57:00,79.7,75.8,29.93,NW,319,0.0,0.0,88,0.00,,---,0.00,VWS V14.01,2013-08-28 17:57:00,
2013-08-28 14:02:00,79.9,76.7,29.93,NW,319,0.0,0.0,90,0.00,,---,0.00,VWS V14.01,2013-08-28 18:02:00,
2013-08-28 14:07:00,79.9,75.7,29.92,NW,304,0.0,0.0,87,0.00,,---,0.00,VWS V14.01,2013-08-28 18:07:00,
2013-08-28 14:12:00,80.0,76.1,29.92,NW,310,0.0,0.0,88,0.00,,---,0.00,VWS V14.01,2013-08-28 18:12:00,
2013-08-28 14:17:00,79.9,75.7,29.92,WNW,300,0.0,0.0,87,0.00,,---,0.00,VWS V14.01,2013-08-28 18:17:00,
2013-08-28 14:22:00,79.8,75.2,29.92,WNW,300,0.0,1.0,86,0.00,,---,0.00,VWS V14.01,2013-08-28 18:22:00,
2013-08-28 14:27:00,79.8,75.6,29.92,WNW,300,0.0,0.0,87,0.00,,---,0.00,VWS V14.01,2013-08-28 18:27:00,
2013-08-28 14:32:00,80.0,75.8,29.91,WNW,302,0.0,0.0,87,0.00,,---,0.00,VWS V14.01,2013-08-28 18:32:00,
2013-08-28 14:37:00,80.1,75.9,29.91,WNW,303,0.0,0.0,87,0.00,,---,0.00,VWS V14.01,2013-08-28 18:37:00,
2013-08-28 14:42:00,80.4,75.8,29.91,WNW,303,0.0,0.0,86,0.00,,---,0.00,VWS V14.01,2013-08-28 18:42:00,
2013-08-28 14:47:00,80.6,76.4,29.91,SSE,152,0.0,0.0,87,0.00,,---,0.00,VWS V14.01,2013-08-28 18:47:00,
2013-08-28 14:52:00,80.6,76.0,29.91,SSE,150,0.0,0.0,86,0.00,,---,0.00,VWS V14.01,2013-08-28 18:52:00,
2013-08-28 14:57:00,80.4,75.5,29.91,East,81,0.0,1.0,85,0.00,,---,0.00,VWS V14.01,2013-08-28 18:57:00,
2013-08-28 15:02:00,80.3,75.7,29.91,NNW,336,0.0,1.0,86,0.00,,---,0.00,VWS V14.01,2013-08-28 19:02:00,
2013-08-28 15:07:00,80.1,75.5,29.91,NNW,336,0.0,1.0,86,0.00,,---,0.00,VWS V14.01,2013-08-28 19:07:00,
2013-08-28 15:12:00,79.9,75.3,29.91,NNW,336,0.0,1.0,86,0.00,,---,0.00,VWS V14.01,2013-08-28 19:12:00,
2013-08-28 15:17:00,79.9,75.7,29.91,NNW,336,0.0,1.0,87,0.00,,---,0.00,VWS V14.01,2013-08-28 19:17:00,
2013-08-28 15:22:00,79.8,75.9,29.90,NNW,336,0.0,1.0,88,0.00,,---,0.00,VWS V14.01,2013-08-28 19:22:00,
2013-08-28 15:27:00,79.6,76.1,29.90,NNW,336,0.0,0.0,89,0.00,,---,0.00,VWS V14.01,2013-08-28 19:27:00,
2013-08-28 15:32:00,79.6,76.1,29.90,NNW,336,0.0,0.0,89,0.00,,---,0.00,VWS V14.01,2013-08-28 19:32:00,
2013-08-28 15:37:00,79.4,76.2,29.90,NNW,336,0.0,0.0,90,0.00,,---,0.00,VWS V14.01,2013-08-28 19:37:00,
2013-08-28 15:42:00,79.4,76.2,29.90,NNW,336,0.0,0.0,90,0.00,,---,0.00,VWS V14.01,2013-08-28 19:42:00,
2013-08-28 15:47:00,79.3,76.1,29.89,NNW,336,0.0,0.0,90,0.00,,---,0.00,VWS V14.01,2013-08-28 19:47:00,
2013-08-28 15:52:00,79.2,76.3,29.89,NNW,335,0.0,0.0,91,0.00,,---,0.00,VWS V14.01,2013-08-28 19:52:00,
2013-08-28 15:57:00,79.2,76.3,29.89,NNW,337,0.0,0.0,91,0.00,,---,0.00,VWS V14.01,2013-08-28 19:57:00,
2013-08-28 16:02:00,79.0,76.2,29.89,NNW,336,0.0,0.0,91,0.00,,---,0.00,VWS V14.01,2013-08-28 20:02:00,
2013-08-28 16:07:00,79.0,76.2,29.89,NNW,336,0.0,0.0,91,0.00,,---,0.00,VWS V14.01,2013-08-28 20:07:00,
2013-08-28 16:12:00,79.0,76.2,29.89,NNW,336,0.0,0.0,91,0.00,,---,0.00,VWS V14.01,2013-08-28 20:12:00,
2013-08-28 16:17:00,79.0,76.5,29.89,NNW,336,0.0,0.0,92,0.00,,---,0.00,VWS V14.01,2013-08-28 20:17:00,
2013-08-28 16:22:00,79.0,76.5,29.88,NNW,336,0.0,0.0,92,0.00,,---,0.00,VWS V14.01,2013-08-28 20:22:00,
2013-08-28 16:27:00,79.1,76.6,29.88,NNW,336,0.0,0.0,92,0.00,,---,0.00,VWS V14.01,2013-08-28 20:27:00,
2013-08-28 16:32:00,79.0,76.5,29.89,NNW,336,0.0,0.0,92,0.00,,---,0.00,VWS V14.01,2013-08-28 20:32:00,
2013-08-28 16:37:00,79.1,76.6,29.88,NNW,337,0.0,0.0,92,0.00,,---,0.00,VWS V14.01,2013-08-28 20:37:00,
2013-08-28 16:42:00,78.9,76.4,29.88,NNW,336,0.0,0.0,92,0.00,,---,0.00,VWS V14.01,2013-08-28 20:42:00,
2013-08-28 16:47:00,78.8,76.3,29.88,NNW,336,0.0,0.0,92,0.00,,---,0.00,VWS V14.01,2013-08-28 20:47:00,
2013-08-28 16:52:00,78.7,76.2,29.88,NNW,336,0.0,0.0,92,0.00,,---,0.00,VWS V14.01,2013-08-28 20:52:00,
2013-08-28 16:57:00,78.7,76.2,29.88,NNW,336,0.0,0.0,92,0.00,,---,0.00,VWS V14.01,2013-08-28 20:57:00,
2013-08-28 17:02:00,78.8,76.6,29.88,NNW,336,0.0,0.0,93,0.00,,---,0.00,VWS V14.01,2013-08-28 21:02:00,
2013-08-28 17:07:00,78.9,76.7,29.88,NNW,336,0.0,0.0,93,0.00,,---,0.00,VWS V14.01,2013-08-28 21:07:00,
2013-08-28 17:12:00,78.9,76.7,29.88,NNW,337,0.0,0.0,93,0.00,,---,0.00,VWS V14.01,2013-08-28 21:12:00,
2013-08-28 17:17:00,78.9,76.7,29.87,NNW,336,0.0,0.0,93,0.00,,---,0.00,VWS V14.01,2013-08-28 21:17:00,
2013-08-28 17:22:00,78.9,76.7,29.88,NNW,336,0.0,0.0,93,0.00,,---,0.00,VWS V14.01,2013-08-28 21:22:00,
2013-08-28 17:27:00,78.8,76.6,29.88,NNW,336,0.0,0.0,93,0.00,,---,0.00,VWS V14.01,2013-08-28 21:27:00,
2013-08-28 17:32:00,78.8,76.6,29.88,NNW,337,0.0,0.0,93,0.00,,---,0.00,VWS V14.01,2013-08-28 21:32:00,
2013-08-28 17:37:00,78.8,76.6,29.87,NNW,337,0.0,0.0,93,0.00,,---,0.00,VWS V14.01,2013-08-28 21:37:00,
2013-08-28 17:42:00,78.8,76.6,29.88,NNW,336,0.0,0.0,93,0.00,,---,0.00,VWS V14.01,2013-08-28 21:42:00,
2013-08-28 17:47:00,78.9,76.7,29.88,NNW,336,0.0,0.0,93,0.00,,---,0.00,VWS V14.01,2013-08-28 21:47:00,
2013-08-28 17:52:00,79.0,76.8,29.87,NNW,336,0.0,0.0,93,0.00,,---,0.00,VWS V14.01,2013-08-28 21:52:00,
2013-08-28 17:57:00,79.1,76.6,29.87,NNW,336,0.0,0.0,92,0.00,,---,0.00,VWS V14.01,2013-08-28 21:57:00,
2013-08-28 18:02:00,79.2,76.7,29.87,NNW,337,0.0,0.0,92,0.00,,---,0.00,VWS V14.01,2013-08-28 22:02:00,
2013-08-28 18:07:00,79.3,76.8,29.87,NNW,337,0.0,0.0,92,0.00,,---,0.00,VWS V14.01,2013-08-28 22:07:00,
2013-08-28 18:12:00,79.4,76.9,29.87,NNW,337,0.0,0.0,92,0.00,,---,0.00,VWS V14.01,2013-08-28 22:12:00,
2013-08-28 18:17:00,79.5,77.0,29.87,NNW,337,0.0,0.0,92,0.00,,---,0.00,VWS V14.01,2013-08-28 22:17:00,
2013-08-28 18:22:00,79.4,76.6,29.87,NNW,337,0.0,0.0,91,0.00,,---,0.00,VWS V14.01,2013-08-28 22:22:00,
2013-08-28 18:27:00,79.4,76.6,29.87,NNW,337,0.0,0.0,91,0.00,,---,0.00,VWS V14.01,2013-08-28 22:27:00,
2013-08-28 18:32:00,79.3,76.4,29.87,NNW,336,0.0,0.0,91,0.00,,---,0.00,VWS V14.01,2013-08-28 22:32:00,
2013-08-28 18:37:00,79.3,76.4,29.87,NNW,337,0.0,0.0,91,0.00,,---,0.00,VWS V14.01,2013-08-28 22:37:00,
2013-08-28 18:42:00,79.3,76.4,29.87,NNW,337,0.0,0.0,91,0.00,,---,0.00,VWS V14.01,2013-08-28 22:42:00,
2013-08-28 18:47:00,79.3,76.8,29.87,NNW,336,0.0,0.0,92,0.00,,---,0.00,VWS V14.01,2013-08-28 22:47:00,
2013-08-28 18:52:00,79.3,76.8,29.86,NNW,336,0.0,0.0,92,0.00,,---,0.00,VWS V14.01,2013-08-28 22:52:00,
2013-08-28 18:57:00,79.4,76.9,29.86,NNW,337,0.0,0.0,92,0.00,,---,0.00,VWS V14.01,2013-08-28 22:57:00,
2013-08-28 19:02:00,79.4,76.9,29.86,NNW,337,0.0,0.0,92,0.00,,---,0.00,VWS V14.01,2013-08-28 23:02:00,
2013-08-28 19:07:00,79.3,76.4,29.86,NNW,337,0.0,0.0,91,0.00,,---,0.00,VWS V14.01,2013-08-28 23:07:00,
2013-08-28 19:12:00,79.2,76.3,29.86,NNW,337,0.0,0.0,91,0.00,,---,0.00,VWS V14.01,2013-08-28 23:12:00,
2013-08-28 19:17:00,79.0,76.2,29.86,NNW,337,0.0,0.0,91,0.00,,---,0.00,VWS V14.01,2013-08-28 23:17:00,
2013-08-28 19:22:00,78.8,75.9,29.86,NNW,336,0.0,0.0,91,0.00,,---,0.00,VWS V14.01,2013-08-28 23:22:00,
2013-08-28 19:27:00,78.6,75.8,29.86,NNW,336,0.0,0.0,91,0.00,,---,0.00,VWS V14.01,2013-08-28 23:27:00,
2013-08-28 19:32:00,78.5,76.0,29.86,NNW,336,0.0,0.0,92,0.00,,---,0.00,VWS V14.01,2013-08-28 23:32:00,
2013-08-28 19:37:00,78.3,75.8,29.86,NNW,337,0.0,0.0,92,0.00,,---,0.00,VWS V14.01,2013-08-28 23:37:00,
2013-08-28 19:42:00,78.0,75.5,29.86,NNW,336,0.0,0.0,92,0.00,,---,0.00,VWS V14.01,2013-08-28 23:42:00,
2013-08-28 19:47:00,77.8,75.6,29.86,NNW,336,0.0,0.0,93,0.00,,---,0.00,VWS V14.01,2013-08-28 23:47:00,
2013-08-28 19:52:00,77.5,75.3,29.86,NNW,337,0.0,0.0,93,0.00,,---,0.00,VWS V14.01,2013-08-28 23:52:00,
2013-08-28 19:57:00,77.3,75.1,29.86,NNW,336,0.0,0.0,93,0.00,,---,0.00,VWS V14.01,2013-08-28 23:57:00,
2013-08-28 20:02:00,77.1,74.9,29.86,NNW,336,0.0,0.0,93,0.00,,---,0.00,VWS V14.01,2013-08-29 00:02:00,
2013-08-28 20:07:00,76.8,74.9,29.86,NNW,338,0.0,0.0,94,0.00,,---,0.00,VWS V14.01,2013-08-29 00:07:00,
2013-08-28 20:12:00,76.5,74.7,29.86,NNW,338,0.0,0.0,94,0.00,,---,0.00,VWS V14.01,2013-08-29 00:12:00,
2013-08-28 20:17:00,76.3,74.4,29.86,NNW,338,0.0,0.0,94,0.00,,---,0.00,VWS V14.01,2013-08-29 00:17:00,
2013-08-28 20:22:00,76.2,74.3,29.86,NNW,338,0.0,0.0,94,0.00,,---,0.00,VWS V14.01,2013-08-29 00:22:00,
2013-08-28 20:27:00,76.1,74.2,29.86,NNW,339,0.0,0.0,94,0.00,,---,0.00,VWS V14.01,2013-08-29 00:27:00,
2013-08-28 20:32:00,76.0,74.5,29.85,NNW,336,0.0,1.0,95,0.00,,---,0.00,VWS V14.01,2013-08-29 00:32:00,
2013-08-28 20:37:00,75.9,74.4,29.86,NNW,336,0.0,1.0,95,0.00,,---,0.00,VWS V14.01,2013-08-29 00:37:00,
2013-08-28 20:42:00,75.9,74.4,29.86,NNW,336,0.0,1.0,95,0.00,,---,0.00,VWS V14.01,2013-08-29 00:42:00,
2013-08-28 20:47:00,75.9,74.4,29.86,NNW,345,0.0,1.0,95,0.00,,---,0.00,VWS V14.01,2013-08-29 00:47:00,
2013-08-28 20:52:00,75.8,74.3,29.86,North,5,0.0,1.0,95,0.00,,---,0.00,VWS V14.01,2013-08-29 00:52:00,
2013-08-28 20:57:00,75.7,74.2,29.86,North,5,0.0,0.0,95,0.00,,---,0.00,VWS V14.01,2013-08-29 00:57:00,
2013-08-28 21:02:00,75.6,74.1,29.86,North,5,0.0,0.0,95,0.00,,---,0.00,VWS V14.01,2013-08-29 01:02:00,
2013-08-28 21:07:00,75.6,74.1,29.87,NNE,27,0.0,0.0,95,0.00,,---,0.00,VWS V14.01,2013-08-29 01:07:00,
2013-08-28 21:12:00,75.5,74.0,29.87,ENE,70,0.0,0.0,95,0.00,,---,0.00,VWS V14.01,2013-08-29 01:12:00,
2013-08-28 21:17:00,75.5,74.0,29.86,ENE,70,0.0,0.0,95,0.00,,---,0.00,VWS V14.01,2013-08-29 01:17:00,
2013-08-28 21:22:00,75.5,74.0,29.87,ENE,70,0.0,0.0,95,0.00,,---,0.00,VWS V14.01,2013-08-29 01:22:00,
2013-08-28 21:27:00,75.5,74.0,29.87,ENE,74,0.0,0.0,95,0.00,,---,0.00,VWS V14.01,2013-08-29 01:27:00,
2013-08-28 21:32:00,75.5,74.0,29.87,East,94,0.0,1.0,95,0.00,,---,0.00,VWS V14.01,2013-08-29 01:32:00,
2013-08-28 21:37:00,75.5,74.0,29.87,SE,132,0.0,1.0,95,0.00,,---,0.00,VWS V14.01,2013-08-29 01:37:00,
2013-08-28 21:42:00,75.5,74.0,29.87,SE,132,0.0,1.0,95,0.00,,---,0.00,VWS V14.01,2013-08-29 01:42:00,
2013-08-28 21:47:00,75.5,74.0,29.87,SE,132,0.0,1.0,95,0.00,,---,0.00,VWS V14.01,2013-08-29 01:47:00,
2013-08-28 21:52:00,75.6,74.1,29.86,SSE,164,0.0,1.0,95,0.00,,---,0.00,VWS V14.01,2013-08-29 01:52:00,
2013-08-28 21:57:00,75.6,74.1,29.86,South,178,0.0,0.0,95,0.00,,---,0.00,VWS V14.01,2013-08-29 01:57:00,
2013-08-28 22:02:00,75.6,74.1,29.86,South,171,0.0,1.0,95,0.00,,---,0.00,VWS V14.01,2013-08-29 02:02:00,
2013-08-28 22:07:00,75.7,74.2,29.86,SSE,168,0.0,1.0,95,0.00,,---,0.00,VWS V14.01,2013-08-29 02:07:00,
2013-08-28 22:12:00,75.7,74.2,29.86,South,179,0.0,1.0,95,0.00,,---,0.00,VWS V14.01,2013-08-29 02:12:00,
2013-08-28 22:17:00,75.7,74.2,29.86,SSE,155,0.0,1.0,95,0.00,,---,0.00,VWS V14.01,2013-08-29 02:17:00,
2013-08-28 22:22:00,75.7,74.2,29.85,SSE,163,0.0,1.0,95,0.00,,---,0.00,VWS V14.01,2013-08-29 02:22:00,
2013-08-28 22:27:00,75.7,74.2,29.85,SSE,163,0.0,1.0,95,0.00,,---,0.00,VWS V14.01,2013-08-29 02:27:00,
2013-08-28 22:32:00,75.7,74.2,29.86,SSE,157,0.0,1.0,95,0.00,,---,0.00,VWS V14.01,2013-08-29 02:32:00,
2013-08-28 22:38:00,75.7,74.2,29.86,SE,126,0.0,1.0,95,0.00,,---,0.00,VWS V14.01,2013-08-29 02:38:00,
2013-08-28 22:43:00,75.7,74.2,29.85,SSW,205,0.0,1.0,95,0.00,,---,0.00,VWS V14.01,2013-08-29 02:43:00,
2013-08-28 22:48:00,75.7,74.2,29.85,SSW,202,0.0,1.0,95,0.00,,---,0.00,VWS V14.01,2013-08-29 02:48:00,
2013-08-28 22:53:00,75.6,74.1,29.85,SSW,209,1.0,1.0,95,0.00,,---,0.00,VWS V14.01,2013-08-29 02:53:00,
2013-08-28 22:58:00,75.6,74.1,29.85,WNW,286,0.0,2.0,95,0.00,,---,0.00,VWS V14.01,2013-08-29 02:58:00,
2013-08-28 23:03:00,75.6,74.1,29.85,SSE,159,0.0,2.0,95,0.00,,---,0.00,VWS V14.01,2013-08-29 03:03:00,
2013-08-28 23:08:00,75.7,74.2,29.85,NW,313,0.0,2.0,95,0.00,,---,0.00,VWS V14.01,2013-08-29 03:08:00,
2013-08-28 23:13:00,75.7,73.8,29.85,WNW,286,0.0,2.0,94,0.00,,---,0.00,VWS V14.01,2013-08-29 03:13:00,
2013-08-28 23:18:00,75.7,73.8,29.84,NNE,28,0.0,2.0,94,0.00,,---,0.00,VWS V14.01,2013-08-29 03:18:00,
2013-08-28 23:23:00,75.7,73.8,29.84,SSE,158,0.0,2.0,94,0.00,,---,0.00,VWS V14.01,2013-08-29 03:23:00,
2013-08-28 23:28:00,75.7,73.8,29.84,South,178,1.0,1.0,94,0.00,,---,0.00,VWS V14.01,2013-08-29 03:28:00,
2013-08-28 23:33:00,75.7,73.8,29.84,ENE,57,0.0,1.0,94,0.00,,---,0.00,VWS V14.01,2013-08-29 03:33:00,
2013-08-28 23:38:00,75.7,73.8,29.83,SSE,150,0.0,1.0,94,0.00,,---,0.00,VWS V14.01,2013-08-29 03:38:00,
2013-08-28 23:43:00,75.7,73.8,29.83,SSE,155,0.0,1.0,94,0.00,,---,0.00,VWS V14.01,2013-08-29 03:43:00,
2013-08-28 23:48:00,75.7,73.8,29.83,East,86,0.0,1.0,94,0.00,,---,0.00,VWS V14.01,2013-08-29 03:48:00,
2013-08-28 23:53:00,75.7,73.8,29.83,South,178,0.0,1.0,94,0.00,,---,0.00,VWS V14.01,2013-08-29 03:53:00,
2013-08-28 23:58:00,75.7,73.8,29.83,NNW,336,0.0,1.0,94,0.00,,---,0.00,VWS V14.01,2013-08-29 03:58:00,